TimeCST,TemperatureF,Dew PointF,Humidity,Sea Level PressureIn,VisibilityMPH,Wind Direction,Wind SpeedMPH,Gust SpeedMPH,PrecipitationIn,Events,Conditions,WindDirDegrees,DateUTC
12:53 AM,12.0,6.1,77,30.32,10.0,South,12.7,-,N/A,,Clear,170,2014-02-11 06:53:00
1:53 AM,12.9,7.0,77,30.29,10.0,South,12.7,-,N/A,,Clear,190,2014-02-11 07:53:00
2:53 AM,12.0,6.1,77,30.27,10.0,South,11.5,-,N/A,,Clear,190,2014-02-11 08:53:00
3:53 AM,12.0,6.1,77,30.24,10.0,South,15.0,-,N/A,,Clear,190,2014-02-11 09:53:00
4:53 AM,10.9,5.0,77,30.22,10.0,South,15.0,-,N/A,,Clear,190,2014-02-11 10:53:00
5:53 AM,10.9,5.0,77,30.20,10.0,South,10.4,-,N/A,,Clear,180,2014-02-11 11:53:00
6:53 AM,12.0,5.0,73,30.17,10.0,South,8.1,-,N/A,,Clear,180,2014-02-11 12:53:00
7:53 AM,12.0,3.9,70,30.14,10.0,SSW,17.3,21.9,N/A,,Clear,200,2014-02-11 13:53:00
8:53 AM,14.0,7.0,74,30.11,9.0,SSW,18.4,27.6,N/A,,Clear,200,2014-02-11 14:53:00
9:53 AM,19.0,12.0,74,30.09,9.0,SSW,21.9,29.9,N/A,,Clear,200,2014-02-11 15:53:00
10:53 AM,24.1,15.1,69,30.04,10.0,South,18.4,28.8,N/A,,Clear,190,2014-02-11 16:53:00
11:53 AM,28.9,18.0,64,30.00,10.0,SSW,24.2,32.2,N/A,,Mostly Cloudy,200,2014-02-11 17:53:00
12:53 PM,32.0,19.9,61,29.96,10.0,SSW,17.3,27.6,N/A,,Scattered Clouds,210,2014-02-11 18:53:00
1:53 PM,36.0,23.0,59,29.92,10.0,SSW,12.7,23.0,N/A,,Overcast,210,2014-02-11 19:53:00
2:53 PM,39.9,25.0,55,29.88,10.0,SSW,17.3,-,N/A,,Partly Cloudy,210,2014-02-11 20:53:00
3:53 PM,39.9,26.1,58,29.89,10.0,WSW,9.2,18.4,N/A,,Clear,240,2014-02-11 21:53:00
4:53 PM,39.9,26.1,58,29.88,10.0,SSW,17.3,23.0,N/A,,Clear,210,2014-02-11 22:53:00
5:53 PM,39.0,27.0,62,29.88,10.0,SSW,15.0,-,N/A,,Clear,210,2014-02-11 23:53:00
6:53 PM,37.9,27.0,65,29.89,10.0,SW,8.1,-,N/A,,Clear,220,2014-02-12 00:53:00
7:53 PM,39.0,26.1,60,29.89,10.0,SSW,10.4,-,N/A,,Clear,210,2014-02-12 01:53:00
8:53 PM,37.9,27.0,65,29.89,10.0,SSW,10.4,-,N/A,,Mostly Cloudy,210,2014-02-12 02:53:00
9:53 PM,36.0,26.1,67,29.90,10.0,WSW,8.1,-,N/A,,Mostly Cloudy,240,2014-02-12 03:53:00
10:53 PM,37.0,27.0,67,29.96,10.0,NW,23.0,31.1,N/A,,Overcast,310,2014-02-12 04:53:00
11:53 PM,34.0,30.0,85,29.96,10.0,NNW,9.2,-,N/A,,Mostly Cloudy,330,2014-02-12 05:53:00